Location: Unspecified
(38.9820°N, 94.4650°W)
Time: 16:10:59
(UTC-05:00)

CZ-3 Stage 3 - Visible Passes

Search period start: 27 July 2016 00:00
Search period end: 06 August 2016 00:00
Orbit: 466 x 34738 km, 30.5° (Epoch: 26 July)

Date Brightness Start Highest point End Pass type
(mag) Time Alt. Az. Time Alt. Az. Time Alt. Az.
28 Jul 4.2 16:17:07 10° SW 17:31:20 12° SW 23:37:00 46° SSE visible
31 Jul 4.2 16:02:49 10° SW 17:21:30 13° SW 23:28:36 45° SSE visible
03 Aug 4.3 15:49:07 10° SW 17:11:39 13° SW 23:20:13 44° SSE visible
